Regional Weather Roundup
Issued by NWS Cleveland, OH

Home | Current Version | Previous Version | Graphics & Text | Print | Product List | Glossary On
Versions: 1 2 3 4 5 6 7 8 9 10 11 12 13 14 15 16 17 18 19 20 21 22 23 24 25 26 27 28 29 30 31 32 33 34 35 36 37 38 39 40 41 42 43 44 45 46 47 48 49 50
000
ASUS41 KCLE 272010
RWRCLE
OHIO REGIONAL WEATHER ROUNDUP
NATIONAL WEATHER SERVICE WILMINGTON, OH
400 PM EDT MON APR 27 2015

NOTE: "FAIR" INDICATES FEW OR NO CLOUDS BELOW 12,000 FEET WITH NO
SIGNIFICANT WEATHER AND/OR OBSTRUCTIONS TO VISIBILITY.

OHZ001>008-015>018-024>027-034-035-043-044-272100-
   NORTHWEST OHIO

CITY           SKY/WX    TMP DP  RH WIND       PRES   REMARKS
DEFIANCE       CLOUDY    50  35  56 NE16      30.04R
FINDLAY        CLOUDY    52  37  56 N15       30.00S
TOLEDO EXPRESS CLOUDY    48  35  60 N12       30.03S
TOLEDO EXEC    CLOUDY    49  34  56 N13       30.03S
LIMA           CLOUDY    49  37  63 N13       30.01R
$$

OHZ009>014-019>023-028>033-038-089-272100-
   NORTHEAST OHIO

CITY           SKY/WX    TMP DP  RH WIND       PRES   REMARKS
CLE-HOPKINS    CLOUDY    44  35  70 NW17      30.02F
CLE-LAKEFRONT  CLOUDY    43  36  76 NW16      29.99S
CUY CO. ARPT   CLOUDY    43  37  81 NW14      29.99F
LORAIN-ELYRIA  CLOUDY    45  37  73 N17       30.01F
ASHTABULA      CLOUDY    42  35  76 NW10G21   29.96S
AKRON-CANTON   CLOUDY    43  34  70 N18       29.97S
WOOSTER        CLOUDY    44  36  73 N18       29.98F
MANSFIELD      CLOUDY    44  35  70 N13       29.99F
YOUNGSTOWN     CLOUDY    42  35  76 NW15      29.94S
$$

OHZ042-051>053-060>062-070>072-077>081-272100-
  SOUTHWEST OHIO

CITY           SKY/WX    TMP DP  RH WIND       PRES   REMARKS
CINC-COVINGTON PTSUNNY   61  36  39 NW14      29.95F
CINC-LUNKEN    CLOUDY    61  37  41 NW8       29.96S
HAMILTON       CLOUDY    60  39  45 N8        29.97S
DAYTON         CLOUDY    56  37  49 N12       29.99S
WRIGHT-PAT AFB PTSUNNY   58  38  48 N12       29.97F
DAYTON GENERAL CLOUDY    57  37  47 N10       29.96S
WILMINGTON     CLOUDY    57  35  43 N14       29.96S
$$

OHZ036-037-039>041-045>050-054>059-063>069-073>076-082>088-272100-
  CENTRAL AND SOUTHEAST OHIO

CITY           SKY/WX    TMP DP  RH WIND       PRES   REMARKS
COLUMBUS       CLOUDY    51  36  56 N13G20    29.97R
OSU AIRPORT    CLOUDY    51  35  54 NW14G20   29.97R
BOLTON FIELD   CLOUDY    52  37  58 N12G18    29.98R
RICKENBACK AFB CLOUDY    52  35  52 NW12      29.97R
NEWARK         CLOUDY    52  36  54 N9        29.95F
MARION         CLOUDY    46  37  71 NE15      30.00S
LANCASTER      CLOUDY    53  36  52 NW10      29.97R
ZANESVILLE     CLOUDY    48  35  60 N12       29.96R
NEW PHILLY     CLOUDY    47  35  63 NW10G23   29.97F
$$



USA.gov is the U.S. government's official web portal to all federal, state and local government web resources and services.